SZN809 OTHH-LDSP

Flight info

Callsign SZN809
Flight time N/A
Altitude 36000
Route TULUB B457 NARMI J735 KFA/N0472F340 H741 JBL L768 FIRAS R655 LEBOR UR655 BALMA M601 DASNI/N0467F360 M601 EVENO UM601 EXELA UN127 LMO UN128 FSK UL608 DISOR DCT LONTA UL608 DOLEV DCT PODOB DCT VELIT
Aircraft B738/M-SDE2E3FGHIRWXY/LB1

Departure

Time 2026-02-17 04:45
Airport Hamad International Airport (OTHH)

Arrival

Time N/A
Airport Split Saint Jerome Airport (LDSP)
Time Latitude Longitude Altitude Speed Heading
2026-02-17 04:45 25.55526 51.65264 4003 ft 240 kts 14°
2026-02-17 04:45 25.57158 51.65656 4008 ft 238 kts 13°
2026-02-17 04:45 25.58825 51.65826 4029 ft 242 kts 357°
2026-02-17 04:46 25.60512 51.65476 4508 ft 248 kts 348°
2026-02-17 04:46 25.62178 51.64997 5144 ft 248 kts 349°
2026-02-17 04:46 25.63863 51.64539 5718 ft 251 kts 350°
2026-02-17 04:47 25.67374 51.63680 6620 ft 270 kts 351°
2026-02-17 04:47 25.69221 51.63238 7230 ft 272 kts 351°
2026-02-17 04:47 25.71072 51.62792 7851 ft 274 kts 351°
2026-02-17 04:47 25.72925 51.62284 8487 ft 275 kts 345°
2026-02-17 04:48 25.74722 51.61547 9117 ft 277 kts 340°
2026-02-17 04:48 25.76491 51.60701 9722 ft 279 kts 339°
2026-02-17 04:48 25.78281 51.59822 10321 ft 280 kts 339°
2026-02-17 04:48 25.80102 51.58946 10630 ft 293 kts 340°
2026-02-17 04:49 25.82028 51.58037 10916 ft 306 kts 340°
2026-02-17 04:49 25.83950 51.56976 11226 ft 319 kts 330°
2026-02-17 04:49 25.85614 51.55277 11712 ft 331 kts 309°
2026-02-17 04:49 25.86791 51.53093 12342 ft 334 kts 303°
2026-02-17 04:50 25.87870 51.50768 12940 ft 336 kts 302°
2026-02-17 04:50 25.88924 51.48451 13538 ft 337 kts 302°
2026-02-17 04:50 25.89998 51.46131 14080 ft 340 kts 303°
2026-02-17 04:51 25.92213 51.41484 15233 ft 345 kts 303°
2026-02-17 04:51 25.93348 51.39136 15804 ft 347 kts 303°
2026-02-17 04:51 25.94495 51.36768 16359 ft 350 kts 303°
2026-02-17 04:51 25.95651 51.34378 16928 ft 352 kts 303°
2026-02-17 04:52 25.96819 51.31965 17445 ft 355 kts 303°
2026-02-17 04:52 25.97974 51.29563 17943 ft 358 kts 302°
2026-02-17 04:52 25.99133 51.27109 18427 ft 361 kts 302°
2026-02-17 04:52 26.00295 51.24619 18907 ft 363 kts 302°
2026-02-17 04:53 26.01465 51.22106 19377 ft 366 kts 301°
2026-02-17 04:53 26.02623 51.19623 19828 ft 368 kts 301°
2026-02-17 04:53 26.03823 51.17054 20248 ft 371 kts 301°
2026-02-17 04:53 26.05013 51.14508 20677 ft 374 kts 301°
2026-02-17 04:54 26.06203 51.11960 21072 ft 377 kts 301°
2026-02-17 04:54 26.07416 51.09363 21482 ft 379 kts 301°
2026-02-17 04:54 26.08629 51.06763 21826 ft 383 kts 301°
2026-02-17 04:55 26.11092 51.01479 22582 ft 388 kts 301°
2026-02-17 04:55 26.12314 50.98757 22941 ft 392 kts 298°
2026-02-17 04:55 26.13458 50.96032 23269 ft 395 kts 298°
2026-02-17 04:55 26.14603 50.93214 23622 ft 398 kts 297°
2026-02-17 04:56 26.15720 50.90436 23985 ft 399 kts 297°
2026-02-17 04:56 26.16862 50.87601 24312 ft 403 kts 297°
2026-02-17 04:56 26.18008 50.84768 24658 ft 405 kts 297°
2026-02-17 04:56 26.19168 50.81913 25015 ft 406 kts 297°
2026-02-17 04:57 26.20350 50.79013 25311 ft 410 kts 297°
2026-02-17 04:57 26.21522 50.76145 25643 ft 412 kts 297°
2026-02-17 04:57 26.22713 50.73230 25923 ft 414 kts 297°
2026-02-17 04:57 26.23906 50.70277 26253 ft 417 kts 296°
2026-02-17 04:58 26.24950 50.67279 26536 ft 420 kts 291°
2026-02-17 04:58 26.25793 50.64151 26836 ft 424 kts 287°
2026-02-17 04:58 26.26434 50.60909 27092 ft 428 kts 283°
2026-02-17 04:59 26.27390 50.54357 27677 ft 432 kts 281°
2026-02-17 04:59 26.27808 50.51058 27984 ft 433 kts 281°
2026-02-17 04:59 26.28220 50.47720 28207 ft 436 kts 280°
2026-02-17 04:59 26.28632 50.44370 28507 ft 436 kts 281°
2026-02-17 05:00 26.29043 50.41057 28723 ft 439 kts 280°
2026-02-17 05:00 26.29474 50.37665 28975 ft 441 kts 281°
2026-02-17 05:00 26.29976 50.34274 29240 ft 442 kts 283°
2026-02-17 05:00 26.30721 50.30958 29460 ft 443 kts 289°
2026-02-17 05:01 26.31706 50.27712 29700 ft 444 kts 292°
2026-02-17 05:01 26.32817 50.24509 29957 ft 445 kts 293°
2026-02-17 05:01 26.33991 50.21314 30167 ft 447 kts 294°
2026-02-17 05:01 26.35183 50.18129 30400 ft 449 kts 294°
2026-02-17 05:02 26.36387 50.14914 30644 ft 450 kts 294°
2026-02-17 05:02 26.37593 50.11673 30877 ft 452 kts 294°
2026-02-17 05:02 26.38778 50.08460 31084 ft 454 kts 294°
2026-02-17 05:03 26.41171 50.01897 31494 ft 457 kts 293°
2026-02-17 05:03 26.42352 49.98627 31694 ft 459 kts 293°
2026-02-17 05:03 26.43536 49.95335 31930 ft 460 kts 293°
2026-02-17 05:03 26.44728 49.92013 32096 ft 462 kts 293°
2026-02-17 05:04 26.45922 49.88677 32317 ft 463 kts 293°
2026-02-17 05:04 26.47108 49.85366 32602 ft 462 kts 293°
2026-02-17 05:04 26.48413 49.82076 32920 ft 459 kts 297°
2026-02-17 05:04 26.49945 49.79001 33231 ft 456 kts 303°
2026-02-17 05:05 26.51771 49.76103 33534 ft 454 kts 309°
2026-02-17 05:05 26.53837 49.73479 33845 ft 452 kts 315°
2026-02-17 05:05 26.56170 49.71093 34154 ft 449 kts 321°
2026-02-17 05:05 26.58709 49.69012 34386 ft 449 kts 327°
2026-02-17 05:06 26.61401 49.67262 34572 ft 450 kts 332°
2026-02-17 05:06 26.64221 49.65713 34802 ft 449 kts 334°
2026-02-17 05:06 26.67077 49.64186 35027 ft 449 kts 333°
2026-02-17 05:07 26.72646 49.60990 35434 ft 448 kts 330°
2026-02-17 05:07 26.75402 49.59271 35600 ft 448 kts 329°
2026-02-17 05:07 26.78089 49.57519 35791 ft 447 kts 328°
2026-02-17 05:07 26.79882 49.56313 35903 ft 447 kts 328°